Hourly Weather Roundup
Issued by NWS Central Illinois

Home | Current Version | Previous Version | Text Only | Print | Product List | Glossary On
Versions: 1 2 3 4 5 6 7 8 9 10 11 12 13 14 15 16 17 18 19 20 21 22 23 24 25 26 27 28 29 30 31 32 33 34 35 36 37 38 39 40 41 42 43 44 45 46 47 48 49 50
000
NZUS43 KILX 241310
HWRILX

AREA WEATHER ROUNDUP
NATIONAL WEATHER SERVICE, LINCOLN IL
800 AM CDT FRI APR 24 2015


CITY           SKY/WX    TMP DP  RH WIND       PRES   REMARKS
BLOOMINGTON    SUNNY     47  27  46 S10       30.09S
CHAMPAIGN      SUNNY     48  25  40 SE7       30.09S
DECATUR        MOSUNNY   47  28  47 S7        30.09S
EFFINGHAM      MOSUNNY   44  32  62 E3        30.11S
FLORA          SUNNY     44  35  69 CALM      30.11S
GALESBURG      CLOUDY    47  22  36 E7        30.04F
JACKSONVILLE   CLOUDY    50  32  49 SE7       30.05F
LACON          SUNNY     42  29  60 CALM      30.07S
LAWRENCEVILLE  SUNNY     46  34  62 CALM      30.12S
LITCHFIELD     CLOUDY    47  29  49 SE9       30.07R
$$


CITY           SKY/WX    TMP DP  RH WIND       PRES   REMARKS
LINCOLN        CLOUDY    46  30  54 SE3       30.08F
MACOMB         CLOUDY    48  24  39 SE7       30.05F
MATTOON        MOSUNNY   45  28  51 SE3       30.09S
MT CARMEL AP   SUNNY     45  36  70 CALM      30.12R
OLNEY-NOBLE AP MOSUNNY   45  34  65 SE5       30.11S
PARIS          MOSUNNY   41  34  76 CALM      30.11S
PEORIA         CLOUDY    49  24  37 S5        30.08S
PONTIAC        SUNNY     44  24  46 SE5       30.09S
RANTOUL        SUNNY     44  29  55 S5        30.09S
ROBINSON       MOSUNNY   39  35  87 CALM      30.13R
SPRINGFIELD    CLOUDY    50  29  44 S8        30.09R
TAYLORVILLE    CLOUDY    46  30  53 SE7       30.08F
$$

...REGIONAL REPORTS...


CITY           SKY/WX    TMP DP  RH WIND       PRES   REMARKS
CHICAGO O`HARE MOSUNNY   42  25  50 W3        30.08S
KANKAKEE       MOSUNNY   37  31  79 CALM      30.11R
MOLINE         CLOUDY    47  20  34 SE9       30.03F
MOUNT VERNON   SUNNY     52  34  50 SE7       30.10R
PITTSFIELD     CLOUDY    51  33  49 SE9       30.03F
QUINCY         CLOUDY    53  31  42 SE9       30.00F
ROCKFORD       PTSUNNY   39  27  62 S5        30.07F
$$


CITY           SKY/WX    TMP DP  RH WIND       PRES   REMARKS
BURLINGTON     CLOUDY    51  21  30 SE9       30.00F
CEDAR RAPIDS   CLOUDY    49  19  30 SE13      29.97F
DES MOINES     CLOUDY    53  28  38 SE16      29.87F
KIRKSVILLE     CLOUDY    52  39  61 SE14      29.94F
OTTUMWA        CLOUDY    50  28  42 SE10      29.94S
ST LOUIS       CLOUDY    54  33  45 SE9       30.06R
$$


CITY           SKY/WX    TMP DP  RH WIND       PRES   REMARKS
TERRE HAUTE    MOSUNNY   41  32  70 CALM      30.12R
EVANSVILLE     SUNNY     46  35  65 CALM      30.13R
INDIANAPOLIS   MOSUNNY   44  29  55 SE3       30.10F
LAFAYETTE      SUNNY     38  29  70 CALM      30.10F
MADISON        PTSUNNY   39  29  67 CALM      30.06S
MILWAUKEE      MOSUNNY   43  24  47 NE7       30.09R
$$





USA.gov is the U.S. government's official web portal to all federal, state and local government web resources and services.